[[{"header":{"parameterUnit":"m.s-1","parameterCategory":1,"la1":30.2991,"la2":30.254,"lo1":-89.0895,"lo2":-89.0444,"dy":0.0017,"dx":0.0017,"nx":28,"ny":28,"refTime":"2025-04-07T09:00:00:Z","depth":0,"parameterNumber":2,"parameterNumberName":"U-component_of_WINDS"},"data":[0,0,0,0,0,0,0,0,0,0,0,0,0,0,0,0,0,0,0,0,0,0,0,0,0,0,0,0,0,0,0,0,0,0,0,0,0,0,0,0,0,0,0,0,0,0,0,0,0,0,0,0,0,0,0,0,0,0,3.5716,3.5717,0,3.5793,3.5794,3.5795,3.5771,3.577,3.5768,3.5767,3.5844,3.5848,3.5851,0,0,0,0,0,0,0,0,0,0,0,0,0,3.5548,3.5551,3.5716,3.5717,3.5718,3.5793,3.5794,3.5795,3.5772,3.577,3.5768,3.5766,3.5843,3.5847,3.5851,0,0,0,0,0,0,0,0,0,0,0,0,0,3.5623,3.5552,3.5716,3.5715,3.5716,3.5793,3.5794,3.5795,3.5772,3.577,3.5767,3.5765,3.5842,3.5847,3.5852,3.5933,0,0,3.5868,3.5871,0,0,0,0,0,0,0,0,3.5618,3.5629,3.5714,3.5715,3.5716,3.577,3.5763,3.5841,3.5773,3.5751,3.5767,3.5764,3.5821,3.5828,3.5848,3.5937,3.594,3.5869,3.5872,3.5874,3.5876,0,0,0,0,0,0,0,3.5613,3.5625,3.5746,3.5716,3.5717,3.5711,3.5719,3.5778,3.5799,3.5753,3.5751,3.5761,3.5821,3.5843,3.5849,3.5941,3.5869,3.5873,3.5877,3.5879,3.6102,3.6104,0,0,0,0,0,0,3.5608,3.5621,3.5744,3.5749,3.5661,3.5716,3.5725,3.5755,3.5798,3.5802,3.5763,3.5759,3.5835,3.5843,3.5852,3.5951,3.5874,3.5879,3.5882,3.6099,3.6102,3.6105,0,0,0,0,0,0,3.5604,3.5619,3.5741,3.5685,3.57,3.5722,3.5756,3.5758,3.5779,3.5805,3.5809,3.5781,3.5833,3.5845,3.5914,3.5953,3.5882,3.5886,3.6096,3.61,3.6104,3.6147,0,0,0,0,0,0,3.5599,3.5618,3.5649,3.5685,3.5703,3.5801,3.5758,3.5761,3.5789,3.5785,3.5823,3.5827,3.5832,3.5906,3.5919,3.5959,3.5891,3.6092,3.6098,3.6102,3.6143,3.6153,3.6161,0,0,0,0,0,3.5593,3.5657,3.565,3.5665,3.5742,3.5803,3.5813,3.5818,3.5792,3.5824,3.5841,3.5826,3.5947,3.5913,3.5928,3.597,3.609,3.6096,3.6102,3.6138,3.6151,3.6161,0,0,0,0,0,0,3.5623,3.5662,3.5655,3.5732,3.5765,3.5799,3.5839,3.5831,3.587,3.5865,3.5869,3.5878,3.5949,3.5966,3.5928,3.6051,3.6014,3.6024,3.6037,3.6049,3.6058,3.6052,3.5895,0,0,0,0,0,3.5639,3.5686,3.5717,3.5783,3.58,3.5817,3.5843,3.5845,3.5878,3.5891,3.5913,3.5946,3.5992,3.6021,3.6064,3.6145,3.6154,3.6182,3.6191,3.6198,3.6206,3.6251,3.6264,3.6125,3.6125,3.6125,0,0,3.5672,3.5699,3.5728,3.579,3.5815,3.5863,3.5828,3.588,3.5916,3.5899,3.5966,3.5983,3.602,3.6096,3.613,3.6113,3.6247,3.6206,3.6212,3.6216,3.6259,3.6272,3.6284,3.6129,3.6129,3.6128,0,0,3.5757,3.5782,3.5839,3.5866,3.5905,3.5916,3.593,3.5967,3.5978,3.6045,3.6033,3.6076,3.6154,3.6181,3.6205,3.6302,3.6291,3.6316,3.6364,3.6408,3.6419,3.6429,3.6463,3.6476,3.6324,3.6324,3.6324,0,3.5792,3.5865,3.587,3.5924,3.5951,3.5939,3.5998,3.6023,3.6074,3.6094,3.6073,3.6172,3.6196,3.6278,3.6302,3.6322,3.6338,3.6311,3.6417,3.6427,3.6436,3.6469,3.6482,3.6327,3.6327,3.6326,3.6326,0,3.5907,3.5958,3.6,3.605,3.6083,3.6139,3.6152,3.6185,3.6184,3.6197,3.6266,3.6295,3.6344,3.6364,3.6363,3.6446,3.6434,3.6416,3.6379,3.6452,3.6483,3.6496,3.6331,3.633,3.6329,3.6328,0,0,3.6011,3.6065,3.608,3.6104,3.6147,3.6186,3.6242,3.6291,3.6319,3.6355,3.6402,3.6469,3.6453,3.648,3.6482,3.6521,3.6596,3.6497,3.6498,3.6515,3.6691,3.6705,3.6719,3.6589,3.6592,3.6594,3.6688,0,3.6099,3.6198,3.6205,3.6294,3.6341,3.6331,3.638,3.6412,3.6427,3.6469,3.6485,3.6532,3.6507,3.6523,3.6561,3.6579,3.6632,3.6573,3.6633,3.6635,3.6624,3.6736,3.675,3.6837,3.67,3.6702,3.6704,0,3.6215,3.6256,3.635,3.6387,3.6408,3.6451,3.6497,3.6538,3.6574,3.6582,3.6614,3.6611,3.6669,3.6631,3.671,3.667,3.6695,3.6708,3.6712,3.6717,3.6674,3.6744,3.6865,3.6878,3.6723,3.6722,3.672,0,3.6282,3.636,3.6427,3.6447,3.6493,3.6524,3.6544,3.6578,3.6608,3.6648,3.6667,3.6714,3.6739,3.6775,3.6785,3.6756,3.6865,3.6827,3.6873,3.6873,3.6895,3.6894,3.7022,3.6913,3.6912,3.6912,3.6912,0,3.6379,3.6437,3.6457,3.6498,3.6563,3.6571,3.6635,3.6654,3.6685,3.6729,3.6723,3.6765,3.6776,3.682,3.6828,3.6893,3.6905,3.6913,3.6914,3.6913,3.6912,3.693,3.6924,3.6916,3.6915,3.6914,3.6914,0,3.6464,3.648,3.6552,3.659,3.6601,3.6647,3.668,3.6719,3.6734,3.679,3.6804,3.6827,3.6878,3.6892,3.6954,3.6959,3.7036,3.7032,3.7024,3.7024,3.7069,3.7065,3.7213,3.7233,3.711,3.7111,3.7112,0,3.6525,3.657,3.6613,3.6643,3.6665,3.6713,3.6743,3.6753,3.6785,3.6831,3.6865,3.6916,3.6957,3.7041,3.7062,3.711,3.7107,3.7155,3.7114,3.7112,3.7107,3.7105,3.7109,3.7163,3.7164,3.7165,3.7166,0,3.6632,3.6638,3.6682,3.673,3.6767,3.6804,3.6841,3.6865,3.688,3.6917,3.697,3.7002,3.7066,3.7117,3.7165,3.7186,3.7179,3.718,3.7193,3.7192,3.7185,3.719,3.7045,3.7176,3.7175,3.7174,3.7174,3.7173,3.6707,3.6746,3.6783,3.6833,3.6862,3.6896,3.6936,3.6956,3.7,3.7053,3.7057,3.7115,3.7151,3.7215,3.7239,3.7285,3.727,3.7289,3.7294,3.7298,3.7302,3.7179,3.7293,3.7293,3.7293,3.7293,3.7293,0,3.6813,3.6837,3.6883,3.6934,3.6974,3.6965,3.7005,3.7038,3.7089,3.7124,3.7166,3.7227,3.7277,3.7304,3.7353,3.7385,3.7383,3.7398,3.7395,3.74,3.7312,3.7296,3.7398,3.7398,3.7398,3.7398,3.7398,3.7398,3.6873,3.694,3.6951,3.7032,3.7055,3.7112,3.7136,3.7168,3.7196,3.7265,3.7307,3.7324,3.7356,3.7408,3.7454,3.746,3.7479,3.7495,3.75,3.7417,3.7406,3.7396,3.7381,3.7499,3.75,3.7584,3.7585,3.7586]},{"header":{"parameterUnit":"m.s-1","parameterCategory":1,"la1":30.2991,"la2":30.254,"lo1":-89.0895,"lo2":-89.0444,"dy":0.0017,"dx":0.0017,"nx":28,"ny":28,"refTime":"2025-04-07T09:00:00:Z","depth":0,"parameterNumber":3,"parameterNumberName":"V-component_of_WINDS"},"data":[0,0,0,0,0,0,0,0,0,0,0,0,0,0,0,0,0,0,0,0,0,0,0,0,0,0,0,0,0,0,0,0,0,0,0,0,0,0,0,0,0,0,0,0,0,0,0,0,0,0,0,0,0,0,0,0,0,0,-7.2218,-7.222,0,-7.2364,-7.2365,-7.2367,-7.2321,-7.2318,-7.2315,-7.2312,-7.2457,-7.2464,-7.247,0,0,0,0,0,0,0,0,0,0,0,0,0,-7.1898,-7.1904,-7.2218,-7.222,-7.2222,-7.2363,-7.2365,-7.2367,-7.2322,-7.2318,-7.2314,-7.2311,-7.2455,-7.2463,-7.2471,0,0,0,0,0,0,0,0,0,0,0,0,0,-7.2039,-7.1906,-7.2218,-7.2216,-7.2217,-7.2363,-7.2365,-7.2368,-7.2322,-7.2318,-7.2313,-7.2309,-7.2452,-7.2462,-7.2472,-7.2627,0,0,-7.2503,-7.2507,0,0,0,0,0,0,0,0,-7.2031,-7.2051,-7.2215,-7.2217,-7.2218,-7.232,-7.2306,-7.2455,-7.2324,-7.2283,-7.2312,-7.2307,-7.2415,-7.2428,-7.2465,-7.2634,-7.264,-7.2504,-7.251,-7.2514,-7.2517,0,0,0,0,0,0,0,-7.2022,-7.2045,-7.2276,-7.2217,-7.2219,-7.2207,-7.2222,-7.2334,-7.2373,-7.2286,-7.2283,-7.2301,-7.2415,-7.2455,-7.2468,-7.2642,-7.2504,-7.2513,-7.2519,-7.2523,-7.2945,-7.295,0,0,0,0,0,0,-7.2011,-7.2037,-7.2271,-7.228,-7.2112,-7.2217,-7.2233,-7.2292,-7.2371,-7.2379,-7.2305,-7.2298,-7.244,-7.2456,-7.2473,-7.266,-7.2514,-7.2524,-7.2529,-7.294,-7.2946,-7.2952,0,0,0,0,0,0,-7.2004,-7.2032,-7.2265,-7.2158,-7.2186,-7.2227,-7.2293,-7.2297,-7.2337,-7.2386,-7.2392,-7.2339,-7.2437,-7.2459,-7.2589,-7.2664,-7.2528,-7.2537,-7.2934,-7.2942,-7.2949,-7.3034,0,0,0,0,0,0,-7.1995,-7.203,-7.209,-7.2159,-7.2192,-7.238,-7.2298,-7.2303,-7.2355,-7.2348,-7.242,-7.2427,-7.2435,-7.2574,-7.2599,-7.2675,-7.2545,-7.2927,-7.2937,-7.2946,-7.3025,-7.3044,-7.306,0,0,0,0,0,-7.1984,-7.2108,-7.2094,-7.2122,-7.2268,-7.2385,-7.2403,-7.2412,-7.2362,-7.2422,-7.2453,-7.2425,-7.2652,-7.2588,-7.2616,-7.2696,-7.2922,-7.2934,-7.2946,-7.3017,-7.304,-7.306,0,0,0,0,0,0,-7.2045,-7.2117,-7.2102,-7.2252,-7.2313,-7.2377,-7.2453,-7.2436,-7.2511,-7.2501,-7.2507,-7.2524,-7.2658,-7.269,-7.2618,-7.285,-7.278,-7.2797,-7.2824,-7.2847,-7.2864,-7.2853,-7.2554,0,0,0,0,0,-7.2076,-7.2165,-7.2223,-7.2349,-7.2381,-7.2412,-7.2463,-7.2464,-7.2527,-7.2552,-7.2592,-7.2653,-7.2739,-7.2794,-7.2875,-7.3029,-7.3044,-7.3098,-7.3116,-7.313,-7.3145,-7.3229,-7.3253,-7.299,-7.299,-7.2989,0,0,-7.214,-7.2191,-7.2247,-7.2363,-7.241,-7.2502,-7.2434,-7.2533,-7.2601,-7.2567,-7.2693,-7.2725,-7.2793,-7.2936,-7.3001,-7.2967,-7.3221,-7.3145,-7.3156,-7.3163,-7.3243,-7.3268,-7.329,-7.2998,-7.2996,-7.2995,0,0,-7.2305,-7.2352,-7.2463,-7.2512,-7.2585,-7.2605,-7.2632,-7.2699,-7.272,-7.2847,-7.2823,-7.2903,-7.3049,-7.3099,-7.3144,-7.3328,-7.3305,-7.3354,-7.3446,-7.3528,-7.3548,-7.3567,-7.3632,-7.3656,-7.3369,-7.3369,-7.3369,0,-7.2375,-7.2514,-7.2522,-7.2624,-7.2676,-7.265,-7.2762,-7.2809,-7.2904,-7.294,-7.2901,-7.3085,-7.3129,-7.3283,-7.3329,-7.3366,-7.3396,-7.3346,-7.3545,-7.3564,-7.3581,-7.3644,-7.3668,-7.3375,-7.3374,-7.3374,-7.3373,0,-7.2597,-7.2693,-7.2774,-7.2868,-7.2929,-7.3035,-7.3059,-7.3119,-7.3115,-7.3139,-7.3268,-7.3321,-7.3412,-7.3449,-7.3445,-7.3603,-7.358,-7.3543,-7.3472,-7.3612,-7.367,-7.3694,-7.3383,-7.3381,-7.3379,-7.3378,0,0,-7.2803,-7.2902,-7.2931,-7.2974,-7.3053,-7.3127,-7.3232,-7.3323,-7.3374,-7.3441,-7.3529,-7.3654,-7.3621,-7.3671,-7.3673,-7.3745,-7.3888,-7.3699,-7.3701,-7.3732,-7.4064,-7.4091,-7.4119,-7.3873,-7.3878,-7.3881,-7.4058,0,-7.2974,-7.3161,-7.3171,-7.334,-7.3429,-7.3406,-7.3497,-7.3555,-7.3581,-7.3659,-7.3686,-7.3774,-7.3724,-7.3754,-7.3825,-7.3856,-7.3954,-7.3843,-7.3954,-7.3958,-7.3937,-7.415,-7.4179,-7.4343,-7.4081,-7.4085,-7.4088,0,-7.3199,-7.3274,-7.3452,-7.3519,-7.3557,-7.3639,-7.3723,-7.3798,-7.3863,-7.3877,-7.3934,-7.3926,-7.4033,-7.3959,-7.4106,-7.403,-7.4075,-7.4098,-7.4104,-7.4114,-7.4031,-7.4165,-7.4396,-7.4421,-7.4125,-7.4122,-7.4119,0,-7.3331,-7.3477,-7.3602,-7.3639,-7.3721,-7.3779,-7.3816,-7.3876,-7.393,-7.4003,-7.4038,-7.4122,-7.4168,-7.4233,-7.4248,-7.4193,-7.4395,-7.4322,-7.4408,-7.4408,-7.4451,-7.4448,-7.4692,-7.4481,-7.4481,-7.448,-7.448,0,-7.3521,-7.3631,-7.3663,-7.374,-7.3862,-7.3873,-7.3993,-7.4025,-7.408,-7.4162,-7.4147,-7.4224,-7.4239,-7.4319,-7.4331,-7.4451,-7.4471,-7.4484,-7.4486,-7.4486,-7.4484,-7.4515,-7.4504,-7.4487,-7.4486,-7.4484,-7.4483,0,-7.369,-7.3716,-7.3851,-7.3917,-7.3937,-7.4024,-7.408,-7.4153,-7.4177,-7.4281,-7.4306,-7.4343,-7.4437,-7.4458,-7.4569,-7.4577,-7.4719,-7.4709,-7.4697,-7.4696,-7.4781,-7.4773,-7.5053,-7.5091,-7.4856,-7.4858,-7.486,0,-7.3809,-7.3893,-7.3969,-7.4024,-7.4063,-7.4151,-7.4207,-7.422,-7.4278,-7.4359,-7.4423,-7.4515,-7.459,-7.474,-7.4776,-7.4861,-7.4853,-7.4946,-7.4866,-7.4863,-7.4854,-7.4849,-7.4857,-7.4961,-7.4963,-7.4965,-7.4967,0,-7.4018,-7.4027,-7.4108,-7.4194,-7.4261,-7.4329,-7.4394,-7.444,-7.4462,-7.4528,-7.4624,-7.4682,-7.4796,-7.4888,-7.4973,-7.5009,-7.4992,-7.4992,-7.5016,-7.5017,-7.5006,-7.5013,-7.4739,-7.4985,-7.4983,-7.4982,-7.4981,-7.498,-7.4165,-7.4239,-7.4305,-7.4395,-7.4446,-7.4507,-7.458,-7.4613,-7.4694,-7.4789,-7.4792,-7.4897,-7.4959,-7.5072,-7.5114,-7.5195,-7.5166,-7.5202,-7.521,-7.5219,-7.5227,-7.4994,-7.5211,-7.521,-7.521,-7.5209,-7.5209,0,-7.4374,-7.4415,-7.4498,-7.459,-7.4662,-7.4641,-7.4712,-7.4773,-7.4866,-7.4927,-7.5001,-7.5111,-7.52,-7.5244,-7.5331,-7.5388,-7.5382,-7.5411,-7.5406,-7.5415,-7.5247,-7.5218,-7.5414,-7.5414,-7.5414,-7.5414,-7.5414,-7.5414,-7.449,-7.4614,-7.4631,-7.478,-7.4819,-7.4923,-7.4966,-7.5022,-7.507,-7.5195,-7.527,-7.5298,-7.5351,-7.5443,-7.5523,-7.5533,-7.5566,-7.5598,-7.5605,-7.5447,-7.5427,-7.5407,-7.5379,-7.5606,-7.5606,-7.5766,-7.5767,-7.5768]}]]